Agadir Al Massira, Morocco

1:41 PM WET on January 20, 2018 (GMT +0000)
Agadir Al Massira

Weather History for GMAD - October, 2011

Change the Weather History Date:

Thursday, October 13, 2011

  Actual Average Record
Temperature  
Mean Temperature 74 °F -  
Max Temperature 91 °F - - ()
Min Temperature 57 °F - - ()
Cooling Degree Days 9    
Growing Degree Days 24 (Base 50)    
Moisture  
Dew Point 53 °F    
Average Humidity 57    
Maximum Humidity 83    
Minimum Humidity 18    
Precipitation  
Precipitation 0.00 in - - ()
Sea Level Pressure  
Sea Level Pressure 30.01 in    
Wind  
Wind Speed 6 mph ()    
Max Wind Speed 17 mph    
Max Gust Speed -    
Visibility 6.1 miles    
Events      
T = Trace of Precipitation, MM = Missing Value Source: Averaged Metar Reports

Daily Weather History Graph

Daily Weather History Graph

Search for Another Location

Airport or City:

Trip Planner

Search our weather history database for the weather conditions in past years. The results will help you decide how hot, cold, wet, or windy it might be!

Date:

Astronomy

Oct. 13, 2011 Rise Set
Actual Time 6:38 AM WET 6:09 PM WET
Civil Twilight 6:14 AM WET 6:33 PM WET
Nautical Twilight 5:46 AM WET 7:01 PM WET
Astronomical Twilight 5:18 AM WET 7:29 PM WET
Moon 6:48 PM WET (10/13) 7:47 AM WET (10/13)
Length of Visible Light 12h 19m
Length of Day
11h 31m
Full, 98% of the Moon is Illuminated
Oct 13
Full
Oct 20
Last Quarter
Oct 26
New
Nov 2
First Quarter
Nov 10
Full

Hourly Weather History & Observations

Time (WET) Temp. Heat Index Dew Point Humidity Pressure Visibility Wind Dir Wind Speed Gust Speed Precip Events Conditions
12:00 AM 63 °F - 58 °F 78% 30.05 in 6 mi East 4.6 mph - -   Partly Cloudy
12:00 AM 62.6 °F - 57.2 °F 82% 30.04 in - East 4.6 mph - N/A   Clear
1:00 AM 62.6 °F - 57.2 °F 82% 30.04 in - East 6.9 mph - N/A   Clear
2:00 AM 60.8 °F - 55.4 °F 82% 30.01 in - ENE 4.6 mph - N/A   Clear
3:00 AM 60 °F - 54 °F 76% 30.03 in - East 4.6 mph - -  
3:00 AM 60.8 °F - 55.4 °F 82% 30.01 in - East 4.6 mph - N/A   Clear
4:00 AM 60.8 °F - 53.6 °F 77% 30.01 in - ESE 3.5 mph - N/A   Clear
5:00 AM 59.0 °F - 51.8 °F 77% 30.01 in 6.2 mi ENE 6.9 mph - N/A   Unknown
6:00 AM 59 °F - 51 °F 67% 30.04 in 6 mi SW 2.3 mph - -  
6:00 AM 59.0 °F - 51.8 °F 77% 30.04 in - SW 2.3 mph - N/A   Clear
7:00 AM 57.2 °F - 50.0 °F 77% 30.04 in - Variable 1.2 mph - N/A   Clear
8:00 AM 64.4 °F - 51.8 °F 64% 30.04 in - East 3.5 mph - N/A   Clear
9:00 AM 74 °F - 47 °F 28% 30.06 in 6 mi East 4.6 mph - -   Clear
9:00 AM 73.4 °F - 48.2 °F 41% 30.06 in - East 4.6 mph - N/A   Clear
10:00 AM 80.6 °F - 44.6 °F 28% 30.06 in - East 4.6 mph - N/A   Clear
11:00 AM 89.6 °F - 41.0 °F 18% 30.04 in - NNE 5.8 mph - N/A   Clear
12:00 PM 91.4 °F - 51.8 °F 26% 30.01 in - West 11.5 mph - N/A   Clear
1:00 PM 84.2 °F 83.5 °F 57.2 °F 40% 29.98 in - West 15.0 mph - N/A   Clear
2:00 PM 80.6 °F 80.5 °F 55.4 °F 42% 29.98 in - West 17.3 mph - N/A   Clear
3:00 PM 82 °F - 51 °F 24% 29.96 in 6 mi West 16.1 mph - -   Partly Cloudy
3:00 PM 82.4 °F - 51.8 °F 35% 29.95 in 6.2 mi West 16.1 mph - N/A   Scattered Clouds
4:00 PM 84.2 °F - 51.8 °F 33% 29.95 in 6.2 mi West 13.8 mph - N/A   Scattered Clouds
5:00 PM 84.2 °F - 51.8 °F 33% 29.95 in 6.2 mi WSW 11.5 mph - N/A   Scattered Clouds
6:00 PM 74 °F - 57 °F 46% 29.98 in 6 mi SSW 12.7 mph - -   Partly Cloudy
6:00 PM 75.2 °F - 57.2 °F 53% 29.98 in 6.2 mi SSW 12.7 mph - N/A   Scattered Clouds
7:00 PM 71.6 °F - 57.2 °F 60% 29.98 in 6.2 mi SSW 9.2 mph - N/A   Scattered Clouds
8:00 PM 71.6 °F - 55.4 °F 57% 30.01 in 6.2 mi SW 4.6 mph - N/A   Scattered Clouds
9:00 PM 68 °F - 56 °F 57% 30.03 in 6 mi West 4.6 mph - -   Partly Cloudy
9:00 PM 68.0 °F - 55.4 °F 64% 30.04 in - West 4.6 mph - N/A   Clear
10:00 PM 68.0 °F - 60.8 °F 78% 30.04 in - WNW 5.8 mph - N/A   Clear
11:00 PM 64.4 °F - 59.0 °F 83% 30.04 in - West 1.2 mph - N/A   Clear